GEFSMA_con_probscp_120.txt.gz
Probability
0 0 1 2 3 4 6 7 7 7 6 4 2 0 0 0 0 0 1 2 3 5 5 5 5 5 5 4 4 3 2 2 1 0 0 0 0 0 0 0 0 0 0
1 1 1 2 2 4 6 7 7 7 6 4 2 1 0 0 0 0 0 1 3 5 5 6 6 6 5 3 2 3 4 4 2 0 0 0 0 0 0 0 0 0 0
2 1 1 1 2 3 5 6 5 5 4 4 3 1 0 0 0 0 0 1 2 4 5 6 7 7 6 4 2 2 4 5 3 1 0 0 0 0 0 0 0 0 0
1 1 0 1 2 3 3 4 4 4 3 3 2 1 0 0 0 0 0 0 1 2 3 5 6 7 7 5 4 4 5 4 2 1 0 0 0 0 0 0 0 0 0
2 1 1 1 2 2 1 2 4 3 3 3 2 1 0 0 0 0 0 0 0 0 2 3 4 4 5 6 5 6 5 3 1 0 0 0 0 0 0 0 0 0 0
3 2 2 2 2 1 0 1 2 2 3 3 2 1 0 0 0 0 0 0 0 0 1 1 1 2 3 4 6 6 4 3 1 0 0 0 0 0 0 0 0 0 0
1 1 2 2 1 0 0 0 1 2 3 3 2 1 0 0 0 0 0 0 0 0 0 0 1 2 2 3 4 4 3 2 1 1 0 0 0 0 0 0 0 0 0
0 0 1 1 1 0 1 1 2 2 3 2 2 2 1 1 0 0 0 0 0 0 0 0 2 3 3 3 2 2 2 2 2 1 1 0 0 0 0 0 0 0 0
0 0 0 0 0 0 1 2 3 4 4 3 3 4 3 1 0 0 0 0 0 0 0 0 1 2 3 3 2 2 2 2 1 1 1 1 0 0 0 0 0 0 0
0 0 0 0 0 0 1 1 2 3 4 4 4 5 4 2 0 0 0 0 0 0 0 0 0 1 1 3 3 2 1 1 0 0 1 1 0 0 0 0 0 0 0
0 0 0 0 0 0 0 0 0 1 2 3 5 5 4 2 1 0 0 0 0 0 0 0 0 0 1 2 2 1 0 0 0 0 0 0 0 0 0 0 0 0 0
0 0 0 0 0 0 0 0 0 0 0 2 3 4 4 3 1 0 0 0 0 0 0 0 0 0 0 1 1 0 0 0 0 0 0 0 0 0 0 0 0 0 0
0 0 0 0 0 0 0 0 0 0 0 0 1 1 1 1 1 0 0 0 0 0 0 0 0 0 0 0 0 0 0 0 0 0 0 0 0 0 0 0 0 0 0
0 0 0 0 0 0 0 0 0 0 0 0 0 0 0 0 0 0 0 0 0 0 0 0 0 0 0 0 0 0 0 0 0 0 0 0 0 0 0 0 0 0 0
0 0 0 0 0 0 0 0 0 0 0 0 0 0 0 0 0 0 0 0 0 0 0 0 0 0 0 0 0 0 0 0 0 0 0 0 0 0 0 0 0 0 0
0 0 0 0 0 0 0 0 0 0 0 0 0 0 0 0 0 0 0 0 0 0 0 0 0 0 0 0 0 0 0 0 0 0 0 0 0 0 0 0 0 0 0
0 0 0 0 0 0 0 0 0 0 0 0 0 0 0 0 0 0 0 0 0 0 0 0 0 0 0 0 0 0 0 0 0 0 0 0 0 0 0 0 0 0 0
0 0 0 0 0 0 0 0 0 0 0 0 0 0 0 0 0 0 0 0 0 0 0 0 0 0 0 0 0 0 0 0 0 0 0 0 0 0 0 0 0 0 0
0 0 0 0 0 0 0 0 0 0 0 0 0 0 0 0 0 0 0 0 0 0 0 0 0 0 0 0 0 0 0 0 0 0 0 0 0 0 0 0 0 0 0
0 0 0 0 0 0 0 0 0 0 0 0 0 0 0 0 0 0 0 0 0 0 0 0 0 0 0 0 0 0 0 0 0 0 0 0 0 0 0 0 0 0 0
0 0 0 0 0 0 0 0 0 0 0 0 0 0 0 0 0 0 0 0 0 0 0 0 0 0 0 0 0 0 0 0 0 0 0 0 0 0 0 0 0 0 0
0 0 0 0 0 0 0 0 0 0 0 0 0 0 0 0 0 0 0 0 0 0 0 0 0 0 0 0 0 0 0 0 0 0 0 0 0 0 0 0 0 0 0
0 0 0 0 0 0 0 0 0 0 0 0 0 0 0 0 0 0 0 0 0 0 0 0 0 0 0 0 0 0 0 0 0 0 0 0 0 0 0 0 0 0 0
0 0 0 0 0 0 0 0 0 0 0 0 0 0 0 0 0 0 0 0 0 0 0 0 0 0 0 0 0 0 0 0 0 0 0 0 0 0 0 0 0 0 0
0 0 0 0 0 0 0 0 0 0 0 0 0 0 0 0 0 0 0 0 0 0 0 0 0 0 0 0 0 0 0 0 0 0 0 0 0 0 0 0 0 0 0
0 0 0 0 0 0 0 0 0 0 0 0 0 0 0 0 0 0 0 0 0 0 0 0 0 0 0 0 0 0 0 0 0 0 0 0 0 0 0 0 0 0 0

GEFSMA_con_probscp_126.txt.gz
Probability
10 9 10 9 7 7 7 4 4 4 5 5 4 4 3 1 0 1 2 2 1 1 3 4 5 5 5 4 4 3 1 1 2 1 0 0 0 0 0 0 0 0 0
14 14 13 11 9 9 7 5 4 5 5 5 4 4 4 3 2 1 2 2 2 2 2 3 4 6 7 5 5 3 2 2 2 1 0 0 0 0 0 0 0 0 0
20 20 19 16 15 13 11 8 7 7 6 5 4 4 5 5 4 2 2 2 2 2 1 2 4 6 7 7 5 5 5 3 1 0 0 0 0 0 0 0 0 0 0
22 24 25 23 20 16 14 13 12 11 8 5 4 3 4 5 4 3 2 2 2 2 2 3 4 6 7 7 7 8 7 4 1 1 1 0 0 0 0 0 0 0 0
22 24 26 25 22 18 16 16 17 15 12 8 4 2 3 4 5 3 2 3 2 2 2 4 5 6 6 8 11 11 8 5 3 2 2 0 0 0 0 0 0 0 0
21 22 23 22 21 19 18 18 17 15 13 10 5 2 3 4 6 5 4 3 2 1 1 3 5 5 4 7 13 15 11 7 6 5 2 0 0 0 0 0 0 0 0
20 20 20 21 21 21 21 19 16 12 11 10 7 5 4 4 6 5 5 3 1 0 1 2 4 6 5 6 11 15 13 9 7 6 3 1 0 0 0 0 0 0 0
21 20 22 24 23 23 22 20 15 11 10 11 10 9 6 6 6 5 5 4 1 0 2 4 5 6 7 8 9 10 10 7 6 6 4 2 1 1 1 0 0 0 0
17 18 21 23 23 24 23 21 17 13 13 15 15 13 11 10 9 6 5 4 2 2 3 4 5 6 7 9 9 7 5 4 5 6 6 4 3 2 1 0 0 0 0
9 12 16 18 19 21 21 21 19 15 15 17 18 17 16 14 12 8 6 5 5 5 6 6 6 7 8 10 9 5 3 2 3 5 6 5 4 2 1 0 0 0 0
3 6 9 12 12 13 14 16 16 14 14 15 16 17 17 15 12 10 7 7 7 7 9 8 8 8 8 8 6 2 1 1 1 3 3 2 2 1 0 0 0 0 0
2 2 5 7 7 7 8 11 11 10 12 14 15 15 14 12 11 11 10 9 7 6 7 8 7 5 4 4 3 1 0 0 0 1 1 0 0 0 0 0 0 0 0
3 2 2 4 5 5 7 8 8 7 9 11 12 11 10 11 12 12 12 10 6 4 4 5 3 1 2 2 2 0 0 0 0 0 0 0 0 0 0 0 0 0 0
2 1 1 3 4 5 6 7 6 6 7 7 6 6 7 10 11 11 11 10 6 4 3 2 2 2 2 1 1 0 0 0 0 0 0 0 0 0 0 0 0 0 0
1 0 1 2 3 3 4 5 5 5 5 3 2 2 4 6 8 9 9 9 8 5 3 1 2 3 3 2 0 0 0 0 0 0 0 0 0 0 0 0 0 0 0
0 0 1 2 1 1 2 3 4 4 3 1 0 0 1 2 5 7 8 8 9 8 5 3 3 3 2 1 0 0 0 0 0 0 0 0 0 0 0 0 0 0 0
0 0 1 1 0 0 1 2 3 3 2 1 0 0 0 1 3 6 7 6 7 8 6 4 3 3 2 0 0 0 0 0 0 0 0 0 0 0 0 0 0 0 0
0 0 0 0 0 0 1 2 3 3 1 0 0 0 0 1 3 5 6 5 4 6 6 4 2 2 1 0 0 0 0 0 0 0 0 0 0 0 0 0 0 0 0
0 0 0 0 0 0 1 2 2 2 1 0 0 0 0 1 2 3 4 3 3 4 5 4 2 1 1 0 0 0 0 0 0 0 0 0 0 0 0 0 0 0 0
0 0 0 0 0 0 0 1 1 1 0 0 0 0 0 0 1 1 1 2 3 4 5 4 2 1 0 0 0 0 0 0 0 0 0 0 0 0 0 0 0 0 0
0 0 0 0 0 0 0 0 0 0 0 0 0 0 0 0 0 0 0 1 2 3 3 3 1 0 0 0 0 0 0 0 0 0 0 0 0 0 0 0 0 0 0
0 0 0 0 0 0 0 0 0 0 0 0 0 0 0 0 0 0 0 1 1 1 1 1 1 0 0 0 0 0 0 0 0 0 0 0 0 0 0 0 0 0 0
0 0 0 0 0 0 0 0 0 0 0 0 0 0 0 0 0 0 0 0 0 0 0 0 0 0 0 0 0 0 0 0 0 0 0 0 0 0 0 0 0 0 0
0 0 0 0 0 0 0 0 0 0 0 0 0 0 0 0 0 0 0 0 0 0 0 0 0 0 0 0 0 0 0 0 0 0 0 0 0 0 0 0 0 0 0
0 0 0 0 0 0 0 0 0 0 0 0 0 0 0 0 0 0 0 0 0 0 0 0 0 0 0 0 0 0 0 0 0 0 0 0 0 0 0 0 0 0 0
0 0 0 0 0 0 0 0 0 0 0 0 0 0 0 0 0 0 0 0 0 0 0 0 0 0 0 0 0 0 0 0 0 0 0 0 0 0 0 0 0 0 0

GEFSMA_con_probscp_132.txt.gz
Probability
33 33 36 37 27 15 13 12 7 5 6 5 4 5 7 7 7 9 14 19 23 22 18 14 11 10 11 11 8 4 1 1 3 5 4 3 2 1 0 0 0 0 0
37 35 34 33 26 21 21 19 13 10 10 7 5 5 7 7 8 11 15 19 21 22 22 19 16 15 14 13 10 7 4 3 5 7 5 4 2 1 0 0 0 0 0
41 39 37 33 29 29 31 29 23 18 14 9 7 7 8 9 13 17 18 19 19 19 21 21 20 17 15 13 11 9 8 8 9 9 7 5 2 1 1 1 0 0 0
42 41 39 35 31 32 33 31 27 21 15 12 11 9 10 14 18 19 18 18 17 15 15 17 17 15 12 10 10 10 11 12 13 12 10 7 5 4 2 1 0 0 0
40 39 36 33 31 30 28 26 24 21 19 16 11 8 11 17 19 18 16 14 14 14 12 12 12 11 10 12 13 13 13 14 15 16 14 11 10 7 3 1 0 0 0
36 35 33 30 30 28 25 22 22 22 22 19 12 7 9 15 18 17 15 11 11 12 12 11 11 9 10 13 15 15 14 14 16 17 17 16 15 10 3 1 0 1 1
30 30 30 28 28 27 25 23 22 21 22 21 15 9 9 12 15 15 14 11 10 10 11 12 13 11 9 11 12 12 12 13 14 15 17 18 16 10 3 0 0 0 0
23 24 26 27 27 25 23 21 20 17 18 19 17 13 10 9 9 9 11 10 9 10 11 12 14 12 10 9 8 9 10 10 10 12 14 15 13 9 4 1 1 1 1
18 18 20 22 23 21 18 16 15 15 15 15 15 14 12 10 8 7 8 8 9 10 10 9 10 11 11 9 8 6 6 6 6 7 10 12 11 8 5 3 2 2 2
14 13 14 16 16 14 13 12 13 14 13 13 12 13 14 13 11 10 8 6 8 9 9 8 8 10 10 9 7 5 3 2 2 3 5 8 9 8 6 4 4 4 4
13 11 10 11 11 10 9 10 11 12 11 11 11 11 12 12 13 12 9 7 6 8 9 9 9 9 9 7 5 3 1 0 0 1 2 3 6 7 7 6 6 4 3
12 9 7 8 9 7 6 7 7 7 7 8 9 9 9 9 11 11 8 6 5 7 9 10 10 9 7 6 4 1 0 0 0 0 0 0 2 4 6 7 5 3 2
7 6 5 6 7 5 3 3 4 4 4 6 7 7 7 6 8 9 7 5 3 5 9 9 9 7 6 5 3 1 0 0 0 0 0 0 1 2 3 3 3 1 0
4 3 4 5 5 3 1 1 3 3 3 4 4 5 5 4 5 7 6 4 3 4 6 6 6 6 6 4 2 1 0 0 0 0 0 0 0 0 0 1 1 0 0
2 3 3 3 2 1 0 1 2 2 3 3 3 4 4 4 4 5 5 5 4 3 3 3 3 5 5 3 1 1 1 1 0 0 0 0 0 0 0 0 0 0 0
2 2 2 1 0 0 0 0 1 1 2 3 3 4 4 4 3 3 4 4 5 4 3 2 2 2 3 3 1 2 2 1 0 0 0 0 0 0 0 0 0 0 0
3 2 1 0 0 0 0 0 0 1 2 3 3 3 3 2 1 1 1 2 3 4 3 2 1 1 2 2 1 1 1 0 0 0 0 0 0 0 0 0 0 0 0
2 2 1 0 0 0 0 0 0 1 2 2 1 1 1 0 0 0 0 0 1 2 2 1 0 1 1 1 0 0 0 0 0 0 0 0 0 0 0 0 0 0 0
1 2 1 0 0 0 0 0 0 0 1 1 0 0 0 0 0 0 0 0 0 1 1 0 0 0 1 1 0 0 0 0 0 0 0 0 0 0 0 0 0 0 0
0 0 0 0 0 0 0 0 0 0 0 0 0 0 0 0 0 0 0 0 1 2 2 1 0 0 1 1 0 0 0 0 0 0 0 0 0 0 0 0 0 0 0
0 0 0 0 0 0 0 0 0 0 0 0 0 0 0 0 0 0 0 0 1 2 2 1 0 0 1 1 0 0 0 0 0 0 0 0 0 0 0 0 0 0 0
0 0 0 0 0 0 0 0 0 0 0 0 0 0 0 0 0 0 0 0 0 1 1 0 0 0 0 0 0 0 0 0 0 0 0 0 0 0 0 0 0 0 0
0 0 0 0 0 0 0 0 0 0 0 0 0 0 0 0 0 0 0 0 0 0 0 0 0 0 0 0 0 0 0 0 0 0 0 0 0 0 0 0 0 0 0
0 0 0 0 0 0 0 0 0 0 0 0 0 0 0 0 0 0 0 0 0 0 0 0 0 0 0 0 0 0 0 0 0 0 0 0 0 0 0 0 0 0 0
0 0 0 0 0 0 0 0 0 0 0 0 0 0 0 0 0 0 0 0 0 0 0 0 0 0 0 0 0 0 0 0 0 0 0 0 0 0 0 0 0 0 0
0 0 0 0 0 0 0 0 0 0 0 0 0 0 0 0 0 0 0 0 0 0 0 0 0 0 0 0 0 0 0 0 0 0 0 0 0 0 0 0 0 0 0

GEFSMA_con_probscp_138.txt.gz
Probability
6 5 5 7 9 7 6 6 6 6 5 2 1 0 0 1 2 2 1 2 4 8 11 12 9 6 2 1 3 5 5 2 1 2 3 2 1 0 0 0 0 0 0
6 4 4 6 7 7 6 6 6 5 4 1 0 0 0 1 1 1 0 1 3 6 10 11 9 5 2 2 3 4 5 3 3 3 3 2 1 1 0 0 0 0 0
4 4 4 5 5 5 4 3 3 4 3 1 0 0 0 0 0 0 0 0 1 3 7 9 7 4 3 4 4 4 5 5 6 6 4 2 2 2 1 1 0 0 0
3 5 7 6 5 4 3 1 1 2 2 1 0 0 0 0 0 0 0 0 0 1 3 5 5 4 4 5 5 5 5 5 7 8 6 4 3 3 2 2 1 0 0
6 8 10 8 5 4 3 1 1 1 1 0 0 0 0 0 0 0 0 0 0 0 1 2 2 3 5 5 4 4 4 4 5 7 6 5 5 4 3 2 2 1 0
7 9 10 9 6 4 2 1 0 0 0 0 0 0 0 0 0 0 0 0 1 1 1 0 0 1 2 3 2 2 3 3 3 4 5 5 6 6 4 2 2 1 1
6 8 9 7 5 3 2 0 0 0 0 0 0 0 0 0 0 0 0 0 1 1 1 0 0 0 1 1 1 2 3 3 2 2 3 5 6 7 6 3 1 1 0
5 6 7 6 4 3 2 1 0 0 0 0 0 0 0 0 0 0 0 0 0 0 0 0 0 1 1 1 1 2 4 4 2 2 3 4 6 7 7 5 3 1 0
3 4 4 4 3 3 3 2 1 0 0 0 0 0 0 0 0 0 0 0 0 0 0 0 0 1 1 2 2 3 4 4 3 3 3 3 4 6 7 7 6 4 2
1 1 2 3 3 3 3 3 1 0 0 0 0 0 0 0 0 0 0 0 0 0 0 0 0 0 1 1 2 3 3 3 3 3 3 2 3 4 6 7 7 6 5
1 1 1 3 3 3 3 2 1 0 0 0 0 0 0 0 0 0 0 0 0 0 0 0 0 0 0 1 1 2 2 2 2 3 2 2 2 4 5 5 4 4 5
1 0 1 2 2 2 2 1 1 0 0 0 0 0 0 0 0 0 0 0 0 0 0 0 0 0 0 0 0 1 1 1 1 2 2 1 2 3 3 2 1 2 2
0 0 0 1 1 1 1 0 0 0 0 0 0 0 0 0 0 0 0 0 0 0 0 0 0 0 0 0 0 0 0 0 0 1 1 0 1 2 2 1 0 1 2
0 0 0 0 0 0 0 0 0 0 0 0 0 0 0 0 0 0 0 0 0 0 1 1 1 0 0 0 0 0 0 0 0 0 0 0 0 1 1 0 0 1 1
0 0 0 0 0 0 0 0 0 0 0 0 0 0 0 0 0 0 0 0 0 0 1 1 1 0 0 0 0 0 0 0 0 0 0 0 0 0 0 0 0 0 0
0 0 0 0 0 0 0 0 0 0 0 0 0 0 0 0 0 0 0 0 0 0 0 0 0 0 0 0 0 0 0 0 0 0 0 0 0 0 0 0 0 0 0
0 0 0 0 0 0 0 0 0 0 0 0 0 0 0 0 0 0 0 0 0 0 0 0 0 0 0 0 0 0 0 0 0 0 0 0 0 0 0 0 0 0 0
0 0 0 0 0 0 0 0 0 0 0 0 0 0 0 0 0 0 0 0 0 0 0 0 0 0 0 0 0 0 0 0 0 0 0 0 0 0 0 0 0 0 0
0 0 0 0 0 0 0 0 0 0 0 0 0 0 0 0 0 0 0 0 0 0 0 0 0 0 0 0 0 0 0 0 0 0 0 0 0 0 0 0 0 0 0
0 0 0 0 0 0 0 0 0 0 0 0 0 0 0 0 0 0 0 0 0 0 0 0 0 0 0 0 0 0 0 0 0 0 0 0 0 0 0 0 0 0 0
0 0 0 0 0 0 0 0 0 0 0 0 0 0 0 0 0 0 0 0 0 0 0 0 0 0 0 0 0 0 0 0 0 0 0 0 0 0 0 0 0 0 0
0 0 0 0 0 0 0 0 0 0 0 0 0 0 0 0 0 0 0 0 0 0 0 0 0 0 0 0 0 0 0 0 0 0 0 0 0 0 0 0 0 0 0
0 0 0 0 0 0 0 0 0 0 0 0 0 0 0 0 0 0 0 0 0 0 0 0 0 0 0 0 0 0 0 0 0 0 0 0 0 0 0 0 0 0 0
0 0 0 0 0 0 0 0 0 0 0 0 0 0 0 0 0 0 0 0 0 0 0 0 0 0 0 0 0 0 0 0 0 0 0 0 0 0 0 0 0 0 0
0 0 0 0 0 0 0 0 0 0 0 0 0 0 0 0 0 0 0 0 0 0 0 0 0 0 0 0 0 0 0 0 0 0 0 0 0 0 0 0 0 0 0
0 0 0 0 0 0 0 0 0 0 0 0 0 0 0 0 0 0 0 0 0 0 0 0 0 0 0 0 0 0 0 0 0 0 0 0 0 0 0 0 0 0 0

GEFSMA_con_probscp_144.txt.gz
Probability
4 4 4 4 3 3 5 9 10 9 8 6 4 2 1 1 0 1 1 1 2 2 1 1 1 1 0 0 0 0 1 1 1 1 0 0 0 0 0 0 0 0 0
3 3 3 3 3 2 4 6 8 8 7 6 4 2 1 0 0 0 0 0 1 1 0 0 0 0 0 0 0 1 2 3 3 2 1 0 0 0 0 0 0 0 0
1 1 2 2 1 1 2 3 5 6 5 4 3 2 1 0 0 0 0 0 0 0 0 1 1 1 2 1 1 1 2 3 3 3 2 1 0 0 0 0 0 0 0
1 1 2 2 1 1 1 2 3 3 3 2 1 1 0 0 0 0 0 0 0 0 0 1 2 3 4 3 2 1 2 2 2 2 3 2 1 1 0 0 0 0 0
1 1 2 3 3 2 2 2 1 1 1 1 0 0 0 0 0 0 0 0 0 0 0 1 1 3 4 3 2 1 2 2 2 2 2 2 2 2 1 0 0 0 0
1 0 1 2 3 3 3 2 1 0 0 0 0 0 0 0 0 0 0 0 0 0 0 0 0 1 1 1 1 1 1 2 1 1 1 1 1 2 1 0 1 1 1
0 0 1 1 2 2 2 2 1 0 0 0 0 0 0 0 0 0 0 0 0 0 0 0 0 0 0 0 0 0 0 0 0 0 0 0 1 2 1 1 2 2 1
0 0 1 1 1 1 1 1 0 0 0 0 0 0 0 0 0 0 0 0 0 0 0 0 0 0 0 0 0 0 0 0 0 0 0 0 1 2 2 2 3 2 1
0 0 0 0 0 0 0 0 0 0 0 0 0 0 0 0 0 0 0 0 0 0 0 0 0 0 0 0 0 0 0 0 0 0 0 0 1 2 2 3 3 2 2
0 0 0 0 0 0 0 0 0 1 0 0 0 0 0 0 0 0 0 0 0 0 0 0 0 0 0 0 0 0 0 0 0 0 0 0 0 1 2 2 2 2 2
0 0 0 0 0 0 0 0 0 0 0 0 0 0 0 0 0 0 0 0 0 0 0 0 0 0 0 0 0 0 0 0 0 0 0 0 0 1 1 1 1 0 1
0 0 0 0 0 0 0 0 0 0 0 0 0 0 0 0 0 0 0 0 0 0 0 0 0 0 0 0 0 0 0 0 0 0 0 0 0 0 0 0 0 0 0
0 0 0 0 0 0 0 0 0 0 0 0 0 0 0 0 0 0 0 0 0 0 0 1 1 0 0 0 0 0 0 0 0 0 0 0 0 0 0 0 0 0 0
0 0 0 0 0 0 0 0 0 0 0 0 0 0 0 0 0 0 0 0 0 0 0 1 2 1 0 0 0 0 0 0 0 0 0 0 0 0 0 0 0 0 0
0 0 0 0 0 0 0 0 0 0 0 0 0 0 0 0 0 0 0 0 0 0 0 1 2 2 1 0 0 0 0 0 0 0 0 0 0 0 0 0 0 0 0
0 0 0 0 0 0 0 0 0 0 0 0 0 0 0 0 0 0 0 0 0 0 0 1 2 2 1 0 0 0 0 0 0 0 0 0 0 0 0 0 0 0 0
0 0 0 0 0 0 0 0 0 0 0 0 0 0 0 0 0 0 0 0 0 0 0 0 1 1 0 0 0 0 0 0 0 0 0 0 0 0 0 0 0 0 0
0 0 0 0 0 0 0 0 0 0 0 0 0 0 0 0 0 0 0 0 0 0 0 0 0 0 0 0 0 0 0 0 0 0 0 0 0 0 0 0 0 0 0
0 0 0 0 0 0 0 0 0 0 0 0 0 0 0 0 0 0 0 0 0 0 0 0 0 0 0 0 0 0 0 0 0 0 0 0 0 0 0 0 0 0 0
0 0 0 0 0 0 0 0 0 0 0 0 0 0 0 0 0 0 0 0 0 0 0 0 0 0 0 0 0 0 0 0 0 0 0 0 0 0 0 0 0 0 0
0 0 0 0 0 0 0 0 0 0 0 0 0 0 0 0 0 0 0 0 0 0 0 0 0 0 0 0 0 0 0 0 0 0 0 0 0 0 0 0 0 0 0
0 0 0 0 0 0 0 0 0 0 0 0 0 0 0 0 0 0 0 0 0 0 0 0 0 0 0 0 0 0 0 0 0 0 0 0 0 0 0 0 0 0 0
0 0 0 0 0 0 0 0 0 0 0 0 0 0 0 0 0 0 0 0 0 0 0 0 0 0 0 0 0 0 0 0 0 0 0 0 0 0 0 0 0 0 0
0 0 0 0 0 0 0 0 0 0 0 0 0 0 0 0 0 0 0 0 0 0 0 0 0 0 0 0 0 0 0 0 0 0 0 0 0 0 0 0 0 0 0
0 0 0 0 0 0 0 0 0 0 0 0 0 0 0 0 0 0 0 0 0 0 0 0 0 0 0 0 0 0 0 0 0 0 0 0 0 0 0 0 0 0 0
0 0 0 0 0 0 0 0 0 0 0 0 0 0 0 0 0 0 0 0 0 0 0 0 0 0 0 0 0 0 0 0 0 0 0 0 0 0 0 0 0 0 0

GEFSMA_con_probscp_150.txt.gz
Probability
8 11 16 15 8 4 5 7 10 11 9 7 5 5 4 3 2 2 4 5 4 1 0 0 1 1 1 0 0 0 0 0 0 1 2 2 1 1 0 0 0 0 0
9 11 14 15 12 8 8 9 10 12 13 11 9 8 7 6 4 3 3 3 3 1 0 1 1 2 1 1 0 0 0 0 0 1 3 3 3 2 1 0 0 0 0
11 12 14 16 16 14 13 12 12 14 16 16 15 13 12 11 8 5 3 3 3 2 1 1 2 3 4 3 2 1 1 1 1 2 3 3 3 2 2 1 0 0 0
13 14 15 15 15 13 13 13 14 16 17 17 18 17 17 15 12 9 6 5 7 7 4 3 3 4 6 6 4 3 3 4 3 3 2 1 1 1 1 1 0 1 1
12 11 11 12 11 9 10 12 15 18 17 15 14 16 17 18 17 13 9 8 10 10 7 4 4 6 7 7 7 5 5 5 4 3 1 0 0 0 0 0 0 1 2
10 8 7 9 9 8 8 11 14 16 16 13 11 10 13 17 17 15 11 8 8 8 6 5 7 9 9 9 8 6 3 3 3 1 0 0 0 0 0 0 0 1 1
10 9 8 9 8 8 8 9 12 14 14 13 10 8 9 12 12 11 9 6 4 4 5 6 8 11 13 11 8 5 2 1 1 0 0 0 1 0 0 0 0 0 0
9 10 11 9 7 7 8 8 10 12 12 11 9 8 8 8 8 7 6 6 4 4 5 6 7 10 12 10 6 3 2 0 0 0 0 0 1 1 1 0 0 0 0
9 10 9 7 6 6 7 7 8 8 8 7 7 9 9 8 7 7 6 6 7 8 7 5 5 6 7 8 5 2 1 0 0 0 0 0 0 1 2 1 0 0 0
10 8 6 5 6 6 7 8 7 7 6 5 6 8 9 9 7 6 6 5 7 9 9 7 5 4 5 7 7 3 0 0 0 0 0 0 0 1 1 1 0 0 0
9 6 4 3 3 5 6 7 7 7 6 4 4 5 6 8 8 6 4 4 5 7 8 7 7 8 7 8 8 4 0 0 0 0 0 0 0 0 0 0 0 0 0
6 5 3 1 1 2 3 4 4 5 4 2 2 3 3 5 6 5 4 3 4 4 5 6 8 10 9 9 8 3 0 0 0 0 0 0 0 0 0 0 0 0 0
5 4 2 0 0 0 1 1 1 2 2 1 1 1 2 3 3 3 4 4 4 3 3 4 6 8 8 8 7 2 0 0 0 0 0 0 0 0 0 0 0 0 0
4 3 1 0 0 0 0 0 0 0 0 0 0 0 1 1 1 1 2 3 3 3 3 2 3 4 5 5 5 3 1 0 0 0 0 0 0 0 0 0 0 0 0
4 3 2 0 0 0 0 0 0 1 1 0 0 0 0 0 1 1 1 1 1 3 2 2 2 3 3 3 3 4 3 1 0 0 0 0 0 0 0 0 0 0 0
3 2 1 0 0 0 0 0 1 1 1 0 0 0 0 0 1 2 1 0 1 2 2 1 2 3 3 3 3 4 2 0 0 0 0 0 0 0 0 0 0 0 0
1 1 0 0 0 0 0 1 1 1 1 0 0 0 0 0 1 1 1 0 0 1 1 0 1 2 3 3 3 3 1 0 0 0 0 0 0 0 0 0 0 0 0
0 0 0 0 0 0 0 0 0 0 0 0 0 0 0 0 0 0 0 0 0 0 0 0 0 1 2 3 3 2 1 0 0 0 0 0 0 0 0 0 0 0 0
0 0 0 0 0 0 0 0 0 0 0 0 0 0 0 0 0 0 0 0 0 0 0 0 0 0 1 2 2 1 0 0 0 0 0 0 0 0 0 0 0 0 0
0 0 0 0 0 0 0 0 0 0 0 0 0 0 0 0 0 0 0 0 0 0 0 0 0 0 0 1 2 1 0 0 0 0 0 0 0 0 0 0 0 0 0
0 0 0 0 0 0 0 0 0 0 0 0 0 0 0 0 0 0 0 0 0 0 0 0 0 0 0 1 2 1 0 0 0 0 0 0 0 0 0 0 0 0 0
0 0 1 0 0 0 0 0 0 0 0 0 0 0 0 0 0 0 0 0 0 0 0 0 0 0 0 1 2 1 0 0 0 0 0 0 0 0 0 0 0 0 0
0 0 0 0 0 0 0 0 0 0 0 0 0 0 0 0 0 0 0 0 0 0 0 0 0 0 0 1 2 2 1 0 0 0 0 0 0 0 0 0 0 0 0
0 0 0 0 0 0 0 0 0 0 0 0 0 0 0 0 0 0 0 0 0 0 0 0 0 0 0 0 1 1 1 0 0 0 0 0 0 0 0 0 0 0 0
0 0 0 0 0 0 0 0 0 0 0 0 0 0 0 0 0 0 0 0 0 0 0 0 0 0 0 0 0 0 0 0 0 0 0 0 0 0 0 0 0 0 0
0 0 0 0 0 0 0 0 0 0 0 0 0 0 0 0 0 0 0 0 0 0 0 0 0 0 0 0 0 0 0 0 0 0 0 0 0 0 0 0 0 0 0

GEFSMA_con_probscp_156.txt.gz
Probability
43 43 44 40 29 23 22 20 19 19 17 15 12 10 10 10 12 18 27 37 37 30 23 19 15 10 8 6 4 2 2 1 0 1 3 3 1 0 0 1 2 4 5
48 48 47 42 33 28 28 27 25 24 21 18 16 16 17 16 16 21 28 35 37 34 30 26 20 14 10 7 5 4 3 1 1 2 3 3 2 1 1 1 2 3 3
50 49 48 43 36 32 32 32 29 26 22 19 19 20 21 22 22 24 29 32 34 36 36 35 30 22 16 12 9 6 4 3 2 2 3 4 4 3 2 1 1 1 2
46 45 44 41 37 34 30 28 27 24 19 18 18 18 20 23 24 25 27 31 33 34 36 37 35 29 22 18 13 8 6 5 5 4 4 5 5 4 3 2 1 1 1
38 39 39 38 36 33 26 23 24 22 19 16 14 14 16 21 24 24 26 30 33 34 33 31 30 29 27 23 17 12 10 9 9 8 7 5 5 4 3 1 1 1 1
29 30 32 34 32 29 25 21 19 18 16 12 9 9 12 16 21 23 24 27 31 33 31 27 24 24 25 23 20 18 16 12 11 11 8 5 4 4 2 0 0 0 0
23 23 26 29 27 26 25 21 16 13 12 10 8 7 8 10 15 21 24 25 25 27 27 24 23 21 18 18 19 19 16 12 9 9 7 4 4 5 4 1 0 0 0
23 23 26 26 25 26 25 21 16 13 12 10 10 8 6 6 10 17 22 22 21 21 19 18 18 17 15 15 14 14 13 10 6 6 6 5 4 6 6 3 1 1 0
25 26 27 26 26 26 25 21 18 16 14 12 12 10 6 4 7 12 15 17 18 17 13 11 11 12 14 13 11 9 8 6 5 4 5 5 4 5 5 4 2 1 1
28 27 25 25 24 24 24 22 19 17 14 12 12 11 8 6 5 6 8 11 15 15 12 9 7 8 9 10 8 7 5 4 3 4 5 4 3 3 3 3 2 1 0
25 23 22 21 20 21 23 24 20 15 12 11 11 11 9 7 6 4 4 6 9 11 10 8 7 7 7 7 5 4 3 3 2 3 3 3 2 2 1 1 1 0 0
20 19 18 17 17 18 20 21 17 13 10 10 11 10 8 6 5 5 3 3 4 6 8 8 7 7 7 6 4 1 1 1 1 1 1 1 1 1 0 0 0 0 0
16 16 15 13 13 14 16 16 14 11 9 8 8 7 5 3 3 3 2 1 1 3 5 6 7 7 7 7 4 1 0 0 0 0 0 0 0 0 0 0 0 0 0
16 16 14 11 10 11 11 12 11 10 8 5 3 2 1 1 1 1 0 0 0 1 1 4 6 7 7 7 4 1 0 0 0 0 0 0 0 0 0 0 0 0 0
19 17 14 11 9 8 7 7 7 7 6 3 1 0 0 0 0 0 0 0 0 0 0 2 5 6 7 6 3 1 1 0 0 0 0 0 0 0 0 0 0 0 0
19 17 14 11 7 3 2 2 2 3 3 1 0 0 0 0 0 0 0 0 0 0 0 1 3 4 5 3 2 2 1 0 0 0 0 0 0 0 0 0 0 0 0
17 16 13 9 3 0 0 0 0 1 1 0 0 0 0 0 0 0 0 0 0 0 0 0 1 3 3 2 1 1 1 0 0 0 0 0 0 0 0 0 0 0 0
14 13 10 5 2 0 0 0 0 0 0 0 0 0 0 0 0 0 0 0 0 0 0 0 1 2 2 2 1 1 0 0 0 0 0 0 0 0 0 0 0 0 0
11 9 4 2 1 2 1 0 0 0 0 0 0 0 0 0 0 0 0 0 0 0 0 0 0 1 1 2 2 1 0 0 0 0 0 0 0 0 0 0 0 0 0
8 5 2 1 2 3 2 1 1 0 0 0 0 0 0 0 0 0 0 0 0 0 0 0 0 0 1 2 2 1 0 0 0 0 0 0 0 0 0 0 0 0 0
5 3 2 2 3 3 2 2 1 0 0 0 0 0 0 0 0 0 0 0 0 0 0 0 0 0 0 1 1 0 0 0 0 0 0 0 0 0 0 0 0 0 0
4 3 3 3 3 2 1 1 1 0 0 0 0 0 0 0 0 0 0 0 0 0 0 0 0 0 0 0 0 0 0 0 0 0 0 0 0 0 0 0 0 0 0
4 3 3 3 3 1 0 0 0 0 0 0 0 0 0 0 0 0 0 0 0 0 0 0 0 0 0 0 0 0 0 0 0 0 0 0 0 0 0 0 0 0 0
3 3 3 3 2 1 0 0 0 0 0 0 0 0 0 0 0 0 0 0 0 0 0 0 0 0 0 0 0 0 0 0 0 0 0 0 0 0 0 0 0 0 0
3 3 3 3 1 0 0 0 0 0 0 0 0 0 0 0 0 0 0 0 0 0 0 0 0 0 0 0 0 0 0 0 0 0 0 0 0 0 0 0 0 0 0
3 3 3 2 1 0 0 0 0 0 0 0 0 0 0 0 0 0 0 0 0 0 0 0 0 0 0 0 0 0 0 0 0 0 0 0 0 0 0 0 0 0 0

GEFSMA_con_probscp_162.txt.gz
Probability
11 11 10 10 9 7 6 7 5 2 0 0 0 0 0 0 0 0 3 9 13 15 18 17 15 14 15 17 18 15 11 6 4 2 1 0 1 1 0 0 0 0 0
11 10 8 8 7 5 3 3 2 1 0 0 0 0 0 0 0 0 2 6 11 17 19 18 16 16 16 17 17 14 11 8 6 4 2 1 2 2 1 1 1 0 0
11 10 8 7 4 2 1 1 0 0 0 0 0 0 0 0 0 0 0 2 7 13 17 17 16 16 17 16 14 13 11 9 7 6 4 2 3 3 2 2 2 1 0
11 11 9 6 2 0 0 0 0 0 0 0 0 0 0 0 0 0 0 0 2 6 11 13 14 14 15 15 13 12 11 10 8 6 4 4 3 2 1 1 2 1 1
12 11 7 4 2 0 0 1 0 0 0 0 0 0 0 0 0 0 0 0 1 3 5 7 10 11 12 14 14 12 11 12 10 7 5 5 4 2 0 0 1 1 0
11 9 5 4 3 2 1 1 0 0 0 0 0 0 0 0 0 0 0 0 1 2 3 4 7 9 9 10 12 11 10 11 12 10 8 6 4 3 1 0 0 0 0
9 8 5 5 5 4 3 2 1 0 0 0 0 0 0 0 0 0 0 0 0 1 2 4 6 6 5 7 8 8 8 9 11 12 11 7 4 3 1 0 0 0 0
10 8 5 4 6 6 6 4 2 0 0 0 0 0 0 0 0 0 0 0 0 0 1 2 3 3 3 4 4 4 4 6 8 10 10 8 4 2 2 1 0 0 0
12 9 5 4 6 7 6 5 3 1 0 0 0 0 0 0 0 0 0 0 0 0 0 1 1 1 2 2 1 1 2 3 5 6 7 5 3 2 2 1 0 0 1
11 8 6 6 6 6 5 4 2 1 1 0 0 0 0 0 0 0 0 0 0 0 0 1 1 0 0 0 0 0 1 1 1 2 2 2 2 2 1 0 0 1 2
8 8 7 6 6 5 4 2 1 1 1 1 0 0 0 0 0 0 0 0 0 0 0 1 1 0 0 0 0 0 0 0 0 0 0 0 1 2 1 0 0 2 3
6 6 6 6 5 3 2 0 0 0 0 0 0 0 0 0 0 0 0 0 0 0 0 0 0 0 0 0 0 0 0 0 0 0 0 0 0 1 1 1 0 2 3
6 5 4 4 4 3 1 0 0 0 0 0 0 0 0 0 0 0 0 0 0 0 0 0 0 0 0 0 0 0 0 0 0 0 0 0 0 1 1 1 1 1 2
5 4 3 3 3 3 2 1 0 0 0 0 0 0 0 0 0 0 0 0 0 0 0 0 0 0 0 0 0 0 0 0 0 0 0 0 0 0 1 1 1 1 1
4 3 3 3 3 3 2 1 0 0 0 0 0 0 0 0 0 0 0 0 0 0 0 0 0 0 0 0 0 0 0 0 0 0 0 0 0 0 1 1 1 0 0
3 3 3 3 3 2 1 0 0 0 0 0 0 0 0 0 0 0 0 0 0 0 0 0 0 0 0 0 0 0 0 0 0 0 0 0 0 0 0 0 0 0 0
3 3 3 3 2 1 0 0 0 0 0 0 0 0 0 0 0 0 0 0 0 0 0 0 0 0 0 0 0 0 0 0 0 0 0 0 0 0 0 0 0 0 0
3 3 3 2 1 1 1 0 0 0 0 0 0 0 0 0 0 0 0 0 0 0 0 0 0 0 0 0 0 0 0 0 0 0 0 0 0 0 0 0 0 0 0
4 3 2 1 1 1 2 1 0 0 0 0 0 0 0 0 0 0 0 0 0 0 0 0 0 0 0 0 0 0 0 0 0 0 0 0 0 0 0 0 0 0 0
5 3 1 0 0 1 1 1 0 0 0 0 0 0 0 0 0 0 0 0 0 0 0 0 0 0 0 0 0 0 0 0 0 0 0 0 0 0 0 0 0 0 0
4 3 1 0 0 0 0 0 0 0 0 0 0 0 0 0 0 0 0 0 0 0 0 0 0 0 0 0 0 0 0 0 0 0 0 0 0 0 0 0 0 0 0
2 1 0 0 0 0 0 0 0 0 0 0 0 0 0 0 0 0 0 0 0 0 0 0 0 0 0 0 0 0 0 0 0 0 0 0 0 0 0 0 0 0 0
1 0 0 0 0 0 0 0 0 0 0 0 0 0 0 0 0 0 0 0 0 0 0 0 0 0 0 0 0 0 0 0 0 0 0 0 0 0 0 0 0 0 0
0 0 0 0 0 0 0 0 0 0 0 0 0 0 0 0 0 0 0 0 0 0 0 0 0 0 0 0 0 0 0 0 0 0 0 0 0 0 0 0 0 0 0
0 0 0 0 0 0 0 0 0 0 0 0 0 0 0 0 0 0 0 0 0 0 0 0 0 0 0 0 0 0 0 0 0 0 0 0 0 0 0 0 0 0 0
0 0 0 0 0 0 0 0 0 0 0 0 0 0 0 0 0 0 0 0 0 0 0 0 0 0 0 0 0 0 0 0 0 0 0 0 0 0 0 0 0 0 0

GEFSMA_con_probscp_168.txt.gz
Probability
8 7 6 7 8 9 12 12 10 8 7 6 3 1 2 2 2 1 0 0 1 2 3 3 4 5 6 7 5 4 5 3 2 1 1 0 0 0 0 0 0 0 0
5 5 5 5 6 8 10 10 9 7 5 4 2 0 1 1 1 0 0 1 2 3 3 3 5 6 7 7 7 6 6 5 4 3 1 0 0 0 0 0 0 0 0
4 4 4 3 3 5 6 6 6 5 5 3 1 0 0 0 0 0 0 1 2 3 3 3 4 6 7 9 10 9 8 7 6 4 2 0 0 0 0 0 0 0 0
6 5 5 4 2 1 2 2 3 3 4 2 1 0 0 0 0 0 0 0 1 2 2 1 2 3 6 9 11 11 9 8 7 6 3 1 0 0 0 0 0 0 0
7 5 5 4 2 1 1 0 1 1 1 1 0 0 0 0 0 0 0 0 0 0 0 0 0 2 5 9 12 12 10 10 9 8 6 3 1 0 0 0 0 0 0
6 4 3 3 3 2 1 1 0 0 0 0 0 0 0 0 0 0 0 0 0 0 1 1 1 2 5 10 14 14 12 11 11 10 7 4 1 1 0 0 0 0 0
6 5 3 3 3 1 1 1 1 0 0 0 0 0 0 0 0 0 0 0 0 1 2 3 3 2 5 10 14 14 13 13 13 11 7 4 2 2 1 0 0 0 0
8 7 6 3 1 0 1 1 1 0 0 0 0 0 0 0 0 0 0 0 0 1 2 3 3 2 3 6 8 10 11 13 15 12 7 3 2 2 1 0 0 0 1
7 7 5 2 0 0 0 0 0 1 1 0 0 0 0 0 0 0 0 0 0 1 1 1 1 1 1 2 3 4 5 9 13 12 7 3 2 2 2 1 1 1 1
4 3 3 2 1 0 0 0 1 2 2 1 0 0 0 0 0 0 0 0 0 0 0 0 0 0 0 0 0 0 1 3 8 10 7 3 2 3 4 4 2 1 1
1 1 1 2 1 0 0 1 2 3 3 2 1 0 0 0 0 0 0 0 0 0 0 0 0 0 0 0 0 0 0 1 2 4 5 4 3 3 4 4 3 1 0
1 2 2 2 2 1 0 1 2 3 3 3 2 1 0 0 0 0 0 0 0 0 0 0 0 0 0 0 0 0 0 0 0 0 1 2 3 3 3 3 2 1 1
3 3 3 4 4 3 2 2 3 3 3 3 2 1 0 0 0 0 0 0 0 0 0 0 0 0 0 0 0 0 0 0 0 0 0 1 1 2 2 1 1 1 1
3 3 3 4 5 5 5 4 4 3 3 3 2 1 0 0 0 0 0 0 0 0 0 0 0 0 0 0 0 0 0 0 0 0 0 0 0 1 1 0 0 0 1
3 3 3 3 4 5 6 5 4 3 3 3 2 1 0 0 0 0 0 0 0 0 0 0 0 0 0 0 0 0 0 0 0 0 0 0 0 0 0 0 0 0 0
3 3 3 3 3 4 5 5 4 3 2 1 1 0 0 0 0 0 0 0 0 0 0 0 0 0 0 0 0 0 0 0 0 0 0 0 0 0 0 0 0 0 0
3 3 3 3 3 3 4 4 4 2 1 0 0 0 0 0 0 0 0 0 0 0 0 0 0 0 0 0 0 0 0 0 0 0 0 0 0 0 0 0 0 0 0
3 3 3 3 3 3 3 4 3 1 0 0 0 0 0 0 0 0 0 0 0 0 0 0 0 0 0 0 0 0 0 0 0 0 0 0 0 0 0 0 0 0 0
3 3 3 3 3 3 3 3 2 1 0 0 0 0 0 0 0 0 0 0 0 0 0 0 0 0 0 0 0 0 0 0 0 0 0 0 0 0 0 0 0 0 0
3 3 3 3 3 3 2 1 1 0 0 0 0 0 0 0 0 0 0 0 0 0 0 0 0 0 0 0 0 0 0 0 0 0 0 0 0 0 0 0 0 0 0
3 3 3 3 3 3 1 0 0 0 0 0 0 0 0 0 0 0 0 0 0 0 0 0 0 0 0 0 0 0 0 0 0 0 0 0 0 0 0 0 0 0 0
3 3 3 4 4 2 1 0 0 0 0 0 0 0 0 0 0 0 0 0 0 0 0 0 0 0 0 0 0 0 0 0 0 0 0 0 0 0 0 0 0 0 0
3 3 4 4 3 1 0 0 0 0 0 0 0 0 0 0 0 0 0 0 0 0 0 0 0 0 0 0 0 0 0 0 0 0 0 0 0 0 0 0 0 0 0
3 3 3 3 2 0 0 0 0 0 0 0 0 0 0 0 0 0 0 0 0 0 0 0 0 0 0 0 0 0 0 0 0 0 0 0 0 0 0 0 0 0 0
2 2 1 1 0 0 0 0 0 0 0 0 0 0 0 0 0 0 0 0 0 0 0 0 0 0 0 0 0 0 0 0 0 0 0 0 0 0 0 0 0 0 0
1 1 0 0 0 0 0 0 0 0 0 0 0 0 0 0 0 0 0 0 0 0 0 0 0 0 0 0 0 0 0 0 0 0 0 0 0 0 0 0 0 0 0

GEFSMA_con_probscp_174.txt.gz
Probability
37 35 33 30 25 24 29 31 25 19 18 15 9 5 5 5 4 4 6 7 4 1 1 3 5 6 8 9 9 9 6 4 4 4 4 4 4 2 1 0 0 0 0
39 37 33 28 23 21 26 29 25 21 20 17 12 8 7 7 6 5 6 7 5 2 2 4 7 8 9 9 9 9 9 7 6 5 5 4 4 4 2 2 1 0 0
38 37 33 28 24 23 26 28 26 23 21 19 16 12 10 11 10 7 6 8 8 5 4 6 8 9 8 8 7 9 11 11 8 6 6 6 6 6 6 6 4 2 1
35 35 33 32 32 31 31 29 27 25 23 20 18 15 14 15 12 9 7 8 8 7 7 8 9 8 7 7 7 9 12 14 12 8 8 9 9 9 10 10 7 3 2
32 32 34 38 40 39 38 35 31 28 25 20 17 17 17 17 16 12 9 7 7 6 6 7 9 9 7 8 9 11 13 15 14 12 10 12 14 14 13 11 8 4 2
31 32 34 37 40 41 42 39 34 30 26 21 16 15 17 16 15 15 11 7 6 5 4 5 8 9 7 7 8 11 13 15 17 16 14 16 18 18 16 12 8 4 2
28 30 31 33 34 37 39 37 31 27 26 23 19 15 12 11 11 12 9 6 4 4 4 4 7 8 6 4 4 8 12 15 18 19 18 19 22 23 20 15 10 5 2
23 24 27 30 31 31 32 32 28 24 23 23 21 16 9 6 7 6 5 4 2 2 3 4 6 8 7 5 3 6 11 14 16 19 20 21 24 25 22 16 12 8 4
21 21 24 27 30 29 29 30 28 25 22 21 19 15 9 6 5 4 2 3 2 2 3 5 6 7 8 8 6 5 7 9 11 15 19 22 24 24 20 15 12 9 6
19 20 21 23 26 28 29 29 26 24 22 19 16 12 8 6 6 5 3 3 3 3 4 5 6 6 7 8 8 6 5 4 6 10 15 20 23 21 17 12 9 7 6
19 19 19 20 22 25 26 25 22 21 19 16 12 9 7 6 6 5 4 4 4 4 4 5 6 6 6 6 7 6 4 2 3 5 8 14 17 16 14 10 6 5 6
18 18 18 18 20 21 21 20 19 18 16 14 10 8 7 6 5 5 4 4 4 4 4 5 5 6 6 7 6 4 2 1 1 3 4 6 8 9 10 8 5 4 4
15 16 16 16 18 18 17 16 16 15 14 13 10 8 7 6 6 5 3 2 3 4 5 5 5 6 7 7 5 2 0 0 1 2 2 3 4 5 6 6 3 2 2
11 11 11 12 14 15 14 13 13 13 12 12 10 8 7 6 6 5 3 1 1 3 5 6 6 6 7 6 5 3 1 0 0 1 1 1 2 3 3 2 1 0 0
6 7 7 9 10 11 11 10 10 12 13 12 10 8 7 7 7 6 5 2 1 1 4 7 6 6 5 4 3 4 3 1 0 0 0 0 1 1 1 0 0 0 0
4 5 6 7 8 8 9 9 10 12 13 12 10 8 7 7 8 8 7 4 2 0 3 6 5 4 4 3 3 3 3 1 0 0 0 0 0 0 0 0 0 0 0
3 4 6 7 7 7 8 9 10 11 10 9 7 6 6 6 7 8 7 5 3 1 2 4 4 3 3 3 3 3 3 2 1 0 0 0 0 0 0 0 0 0 0
4 4 5 6 6 6 7 9 9 7 6 5 4 4 4 4 5 5 5 4 2 1 1 1 2 3 3 3 3 3 2 2 1 0 0 0 0 0 0 0 0 0 0
5 4 4 5 6 6 6 7 6 5 4 3 3 3 3 3 3 3 3 1 1 1 0 0 1 1 2 3 3 3 2 1 1 0 0 0 0 0 0 0 0 0 0
6 4 4 4 4 4 4 4 4 3 3 3 3 3 3 2 2 2 1 0 0 0 0 0 0 1 1 2 2 2 1 1 0 0 0 0 0 0 0 0 0 0 0
6 5 4 3 3 3 3 3 3 3 3 3 3 2 1 1 1 1 0 0 0 0 0 0 0 0 0 0 1 2 2 1 0 0 0 0 0 0 0 0 0 0 0
6 6 5 4 3 3 3 3 3 3 3 3 3 1 0 0 0 0 0 0 0 0 0 0 0 0 0 0 0 1 2 1 0 0 0 0 0 0 0 1 0 0 0
6 6 6 5 4 3 2 1 2 3 4 3 3 1 0 0 0 0 0 0 0 0 0 0 0 0 0 0 0 1 1 0 0 1 0 0 0 0 0 0 0 0 0
6 6 6 6 6 4 1 0 1 3 4 4 3 2 1 0 0 0 0 0 0 0 0 0 0 0 0 0 0 0 0 0 0 0 0 0 0 0 0 0 0 0 0
6 6 6 6 6 5 2 0 1 2 3 3 3 2 1 0 0 0 0 0 0 0 0 0 0 0 0 0 0 0 0 0 0 0 0 0 0 0 0 0 0 0 0
6 5 4 4 5 4 2 0 0 1 3 3 3 2 1 0 0 0 0 0 0 0 0 0 0 0 0 0 0 0 0 0 0 0 0 0 0 0 0 0 0 0 0

GEFSMA_con_probscp_180.txt.gz
Probability
34 33 36 42 41 39 37 29 25 25 21 16 10 6 7 11 15 17 20 25 30 32 32 29 28 23 16 13 14 17 18 19 21 22 20 16 11 7 5 5 4 3 2
39 37 38 42 41 37 32 27 25 26 24 20 16 12 11 13 18 23 25 25 27 29 32 32 32 28 22 17 15 16 18 20 22 23 21 18 14 9 6 6 6 5 3
46 43 42 44 42 35 28 25 26 28 25 21 21 20 17 17 21 27 29 27 23 24 30 35 36 33 27 21 17 16 17 20 22 23 22 21 18 12 8 7 6 5 4
50 47 44 45 44 36 28 25 26 27 24 21 20 20 18 19 21 23 26 26 22 20 24 30 33 31 26 23 19 17 19 20 21 22 22 22 21 16 12 8 6 5 4
48 46 44 43 43 38 31 27 27 27 25 20 16 14 14 17 19 18 18 19 19 19 18 20 25 26 23 21 19 21 23 22 21 21 22 24 23 19 14 11 8 7 6
43 43 42 40 40 38 34 31 31 30 25 19 13 9 8 10 14 16 14 12 12 13 13 15 20 22 19 18 19 23 26 25 23 21 22 24 24 21 16 12 11 10 9
39 40 39 39 38 37 35 34 33 29 23 19 14 8 4 5 8 10 11 9 6 6 9 14 19 21 17 15 16 20 24 25 24 23 24 25 24 23 19 15 14 13 12
36 36 37 37 36 35 34 32 30 25 20 18 17 11 5 3 4 6 7 6 3 4 6 10 17 20 17 14 14 15 17 21 24 25 26 25 24 23 22 19 17 15 15
35 35 35 34 33 32 32 30 28 24 19 17 17 13 7 4 5 7 8 6 5 5 6 7 11 16 16 16 15 11 10 13 18 22 24 24 23 23 24 22 18 16 16
34 35 34 32 30 29 29 28 26 24 18 14 14 12 8 6 6 7 8 8 7 8 7 6 7 11 14 15 14 11 6 6 10 15 19 20 19 20 22 21 18 16 15
34 33 30 27 26 25 25 25 24 21 17 14 13 11 9 6 6 5 5 6 7 7 7 6 7 9 12 13 11 8 5 3 5 10 12 13 13 15 17 16 15 13 12
30 28 24 21 21 21 21 21 20 18 15 14 13 12 9 7 6 5 4 4 5 5 5 6 7 9 11 11 8 5 4 3 4 6 7 6 7 10 12 12 12 11 10
24 23 20 17 17 17 16 17 17 15 12 12 12 11 10 8 7 6 6 5 3 2 2 3 6 8 10 10 8 4 2 2 2 2 3 3 4 6 7 8 10 9 8
17 17 16 15 13 12 12 12 13 12 10 10 10 10 9 8 7 6 6 4 2 1 1 2 4 7 9 10 7 3 1 1 1 0 1 1 2 3 4 5 6 6 5
12 13 12 11 9 8 7 8 10 11 10 9 8 8 7 7 6 5 4 3 1 0 0 2 4 6 6 6 5 4 2 1 0 0 0 0 1 1 1 2 3 3 2
10 10 8 6 6 5 4 5 8 9 9 8 7 5 5 5 5 4 3 2 1 0 1 2 3 3 3 2 3 5 4 1 0 0 0 0 0 0 0 1 1 1 1
6 6 4 3 4 4 3 4 6 7 8 8 6 4 4 4 4 3 3 2 1 1 1 2 2 2 1 1 2 4 4 2 0 0 0 0 0 0 0 0 0 0 0
2 2 2 2 3 3 3 4 4 5 6 6 5 5 5 4 3 3 3 3 2 2 2 1 1 1 1 0 1 2 3 2 0 0 0 0 0 0 0 0 0 0 0
2 1 2 2 2 2 3 4 4 4 4 4 4 5 5 3 3 3 3 3 3 3 2 1 0 0 0 0 0 1 1 1 0 0 0 0 0 0 0 0 0 0 0
2 2 2 2 1 1 3 4 3 3 3 3 4 4 4 3 3 3 3 3 3 3 2 1 0 0 0 0 0 0 0 0 0 0 0 0 0 0 0 0 0 0 0
2 3 4 3 2 1 2 3 3 3 3 3 3 3 3 3 3 3 3 3 2 1 1 0 0 0 0 0 0 0 0 0 0 0 0 0 0 0 0 0 0 0 0
4 4 4 4 3 2 1 2 3 3 4 4 4 4 4 4 4 3 3 2 1 0 0 0 0 0 0 0 0 0 0 0 0 0 0 0 0 0 0 0 0 0 0
4 3 3 4 4 3 1 1 2 4 5 6 6 6 5 5 5 3 2 1 0 0 0 0 0 0 0 0 0 0 0 0 0 0 0 0 0 0 0 0 0 0 0
4 3 3 4 5 3 1 0 1 3 5 6 7 7 7 6 5 3 1 0 0 0 0 0 0 0 0 0 0 0 0 0 0 0 0 0 0 0 0 0 0 0 0
5 4 3 4 4 2 1 0 0 2 4 6 6 6 4 3 3 1 1 0 0 0 0 0 0 0 0 0 0 0 0 0 0 0 0 0 0 0 0 0 0 0 0
6 5 4 3 3 1 0 0 0 1 3 6 6 4 2 1 1 0 0 0 0 0 0 0 0 0 0 0 0 0 0 0 0 0 0 0 0 0 0 0 0 0 0

GEFSMA_con_probscp_186.txt.gz
Probability
19 18 17 16 18 20 20 17 13 11 8 4 3 6 7 8 9 9 6 8 16 21 22 22 24 26 24 21 18 15 11 9 8 8 9 11 9 6 3 2 3 3 2
19 18 17 15 16 18 17 14 10 7 5 2 2 4 6 7 8 7 6 9 15 20 20 20 21 23 22 19 17 15 13 12 11 11 12 13 12 8 4 1 2 2 2
17 15 14 13 13 14 14 10 6 4 2 1 1 2 3 5 5 4 5 8 11 14 16 16 18 20 19 15 13 14 15 15 16 15 13 13 13 12 7 3 2 2 3
16 14 12 12 11 12 12 8 5 4 2 2 1 1 1 3 2 2 3 6 8 9 10 13 17 19 17 13 11 12 14 16 17 15 12 9 11 13 11 7 4 4 4
19 17 14 12 12 12 11 7 4 3 3 3 2 1 0 1 2 2 2 4 5 7 8 10 14 16 15 12 12 12 13 14 14 13 9 5 8 13 14 11 9 8 8
18 17 16 15 14 12 10 6 3 1 2 2 2 1 0 0 1 1 1 1 2 5 6 7 9 11 12 13 13 12 12 12 13 12 9 6 8 14 16 13 12 13 13
16 16 15 15 14 12 10 7 3 1 1 2 3 3 1 0 0 0 0 0 0 1 2 3 4 6 9 11 12 11 11 11 13 14 12 10 13 18 20 16 13 13 14
18 17 14 13 13 11 10 8 6 3 3 4 5 5 3 1 0 0 0 0 0 0 0 1 1 3 4 6 8 9 9 10 13 17 18 17 19 22 24 20 15 12 12
18 18 15 12 12 11 10 9 8 7 5 5 6 6 4 1 0 0 0 0 0 0 0 0 0 1 2 2 4 5 7 9 11 16 21 23 23 24 25 24 18 13 12
14 15 14 13 12 11 10 10 10 9 6 5 6 6 5 2 0 0 0 0 0 0 0 0 0 0 0 0 1 2 3 5 6 11 19 24 24 22 24 24 20 17 16
8 10 11 11 10 9 9 10 10 9 7 6 6 6 5 3 1 1 1 0 0 0 0 0 0 0 0 0 0 0 0 1 2 5 11 17 19 18 19 20 20 18 17
5 6 7 6 5 6 7 8 8 8 6 6 6 6 5 3 3 2 2 1 0 0 0 0 0 0 0 0 0 0 0 0 0 1 4 8 10 11 12 16 18 18 16
2 2 3 2 1 2 3 5 6 5 5 5 6 6 5 4 3 3 3 2 1 0 0 0 0 0 0 0 0 0 0 0 0 0 1 2 3 4 6 10 14 16 16
1 0 0 0 0 0 0 2 3 4 3 4 4 5 6 5 4 3 3 2 1 0 0 0 0 0 0 0 0 0 0 1 1 0 0 0 0 1 2 3 6 10 11
0 0 0 0 0 0 0 0 1 2 3 3 3 4 5 6 5 4 3 1 0 0 0 0 0 0 0 0 0 0 0 1 1 0 0 0 0 0 0 0 1 3 4
0 0 0 0 0 0 0 0 0 1 2 3 3 3 4 5 6 4 3 1 0 0 0 0 0 0 0 0 0 0 0 1 1 0 0 0 0 0 0 0 0 0 1
0 0 0 0 0 0 0 0 0 0 1 1 2 3 3 4 6 5 4 1 0 0 0 0 0 0 0 0 0 0 0 0 0 0 0 0 0 0 0 0 0 0 0
0 0 0 0 0 0 0 0 0 0 0 0 1 3 3 4 5 6 5 2 1 0 0 0 0 0 0 0 0 0 0 0 0 0 0 0 0 0 0 0 0 0 0
0 0 0 0 0 0 0 0 0 0 0 0 1 2 3 3 4 5 4 3 1 0 0 0 0 0 0 0 0 0 0 0 0 0 0 0 0 0 0 0 0 0 0
1 0 0 0 0 0 0 0 0 0 0 0 0 1 2 3 3 4 3 3 2 1 0 0 0 0 0 0 0 0 0 0 0 0 0 0 0 0 0 0 0 0 0
1 0 0 0 0 0 0 0 0 0 0 0 0 0 1 2 3 3 3 3 3 2 1 0 0 0 0 0 0 0 0 0 0 0 0 0 0 0 0 0 0 0 0
1 0 0 0 0 0 0 0 0 0 0 0 0 0 0 1 2 2 2 3 3 3 2 1 0 0 0 0 0 0 0 0 0 0 0 0 0 0 0 0 0 0 0
0 0 0 0 0 0 0 0 0 0 0 0 0 0 0 1 1 1 1 2 3 3 2 1 0 0 0 0 0 0 0 0 0 0 0 0 0 0 0 0 0 0 0
0 0 0 0 0 0 0 0 0 0 0 0 0 0 0 0 0 1 2 3 2 1 1 0 0 0 0 0 0 0 0 0 0 0 0 0 0 0 0 0 0 0 0
0 0 0 0 0 0 0 0 0 0 0 0 0 0 0 0 0 1 2 3 2 1 0 0 0 0 0 0 0 0 0 0 0 0 0 0 0 0 0 0 0 0 0
0 0 0 0 0 0 0 0 0 0 0 0 0 0 0 0 0 0 1 2 1 0 0 0 0 0 0 0 0 0 0 0 0 0 0 0 0 0 0 0 0 0 0

GEFSMA_con_probscp_192.txt.gz
Probability
12 11 10 10 10 12 13 12 8 4 3 3 2 1 2 4 6 6 5 4 3 3 4 6 9 9 9 12 14 13 11 8 8 7 7 6 6 4 4 6 8 10 10
11 11 11 11 11 12 13 12 8 5 3 3 3 2 2 3 4 4 4 3 3 4 4 7 10 10 9 12 14 14 12 10 10 9 6 4 5 4 4 6 9 10 11
14 13 12 11 10 10 11 10 7 4 3 3 3 2 1 1 1 2 3 4 4 5 5 8 11 12 10 9 11 12 11 12 13 10 5 3 4 4 5 6 8 10 11
16 14 11 9 9 9 10 9 6 4 3 3 2 1 0 0 1 2 3 5 5 5 5 7 9 10 9 7 7 8 10 13 14 11 6 3 4 5 5 5 6 8 9
14 12 9 7 7 9 10 10 8 6 4 3 2 1 1 1 2 3 4 5 5 4 4 6 8 8 7 6 6 6 8 10 13 12 8 5 6 5 4 4 5 6 6
10 9 8 7 7 8 10 11 10 7 4 3 3 3 2 3 3 3 4 5 5 3 3 6 9 9 8 7 5 4 5 7 11 11 8 7 8 7 4 3 4 5 4
7 7 8 8 8 9 10 10 9 7 5 4 4 3 3 3 3 3 3 4 4 4 4 6 10 11 9 7 5 5 5 8 10 10 7 8 10 10 7 4 4 5 6
6 7 8 8 9 10 10 9 8 7 6 6 5 4 3 3 1 1 2 4 4 4 5 7 9 10 8 7 6 7 8 9 10 9 7 9 11 12 10 7 5 6 6
4 6 7 7 8 9 9 8 7 6 6 6 6 5 4 2 1 0 1 1 2 2 3 5 7 7 8 8 8 7 6 7 7 8 8 9 11 11 9 7 6 5 4
2 3 4 6 7 7 7 6 6 6 6 6 6 5 4 2 1 0 0 0 0 0 1 3 4 5 7 7 7 5 3 3 4 7 8 9 10 9 7 5 4 3 2
1 2 3 4 5 6 5 4 3 4 4 4 4 4 3 2 1 0 0 0 0 0 0 1 2 3 4 4 4 2 1 1 2 4 7 8 8 7 6 5 4 3 2
1 2 3 3 3 4 2 1 1 2 2 1 2 2 2 1 0 0 0 0 0 0 0 0 1 2 2 2 1 1 0 0 0 1 3 4 5 5 6 6 5 3 2
1 2 2 1 1 1 0 0 0 1 1 0 0 1 2 1 0 0 0 0 0 0 0 0 2 3 3 2 1 0 0 0 0 0 0 1 2 4 5 5 5 3 2
1 1 1 0 0 0 0 0 0 0 0 0 0 1 2 2 1 1 0 0 0 0 0 1 2 3 3 3 2 1 0 0 0 0 0 0 1 2 3 3 2 2 2
0 0 0 0 0 0 0 0 0 0 0 0 0 0 1 2 3 2 1 0 0 0 0 1 2 3 3 3 2 1 1 0 0 0 0 0 0 1 1 1 1 1 1
0 0 0 0 0 0 0 0 0 0 0 0 0 0 1 2 3 3 2 1 0 0 0 0 1 3 3 3 2 2 1 0 0 0 0 0 0 0 0 0 0 0 0
0 0 0 0 0 0 0 0 0 0 0 0 0 0 0 1 2 3 3 2 1 0 0 0 1 2 3 3 3 2 1 0 0 0 0 0 0 0 0 0 0 0 0
0 0 0 0 0 0 0 0 0 0 0 0 0 0 0 0 1 2 3 3 1 0 0 0 1 2 2 2 2 1 1 0 0 0 0 0 0 0 0 0 0 0 0
0 0 0 0 0 0 0 0 0 0 0 0 0 0 0 0 0 1 2 3 2 1 0 0 0 1 1 1 1 0 0 0 0 0 0 0 0 0 0 0 0 0 0
0 0 0 0 0 0 0 0 0 0 0 0 0 0 0 0 0 0 1 2 3 2 1 0 0 0 0 0 0 0 0 0 0 0 0 0 0 0 0 0 0 0 0
0 0 0 0 0 0 0 0 0 0 0 0 0 0 0 0 0 0 0 1 2 2 1 0 0 0 0 0 0 0 0 0 0 0 0 0 0 0 0 0 0 0 0
0 0 0 0 0 0 0 0 0 0 0 0 0 0 0 0 0 0 0 0 1 2 2 1 0 0 0 0 0 0 0 0 0 0 0 0 0 0 0 0 0 0 0
0 0 0 0 0 0 0 0 0 0 0 0 0 0 0 0 0 0 0 0 0 1 1 1 0 0 0 0 0 0 0 0 0 0 0 0 0 0 0 0 0 0 0
0 0 0 0 0 0 0 0 0 0 0 0 0 0 0 0 0 0 0 0 0 0 0 0 0 0 0 0 0 0 0 0 0 0 0 0 0 0 0 0 0 0 0
0 0 0 0 0 0 0 0 0 0 0 0 0 0 0 0 0 0 0 0 0 0 0 0 0 0 0 0 0 0 0 0 0 0 0 0 0 0 0 0 0 0 0
0 0 0 0 0 0 0 0 0 0 0 0 0 0 0 0 0 0 0 0 0 0 0 0 0 0 0 0 0 0 0 0 0 0 0 0 0 0 0 0 0 0 0

GEFSMA_con_probscp_198.txt.gz
Probability
21 20 21 22 21 19 19 20 20 20 19 16 14 12 9 6 6 7 9 14 13 7 4 6 7 7 8 11 14 17 18 15 13 13 12 8 4 3 2 1 2 2 3
22 20 19 20 20 20 19 20 20 20 19 17 15 14 11 7 6 6 7 11 12 8 5 6 7 8 9 12 13 15 17 18 17 15 12 9 5 3 2 2 1 1 2
27 25 21 19 19 20 20 20 20 19 18 18 16 15 13 10 7 5 6 8 10 9 7 9 10 11 11 11 11 11 16 21 21 18 15 12 9 6 4 3 1 1 2
34 31 24 19 19 20 19 19 17 16 17 17 16 15 14 13 9 7 7 8 10 10 10 11 14 14 13 12 10 10 15 20 21 20 17 16 16 12 7 3 1 1 1
33 31 25 19 19 20 19 18 16 15 14 15 14 12 12 13 12 10 8 8 9 9 9 12 15 16 15 16 14 12 14 18 20 19 18 19 20 18 11 6 3 2 2
28 26 23 21 20 21 21 20 19 17 15 14 11 8 9 11 13 12 8 6 6 6 7 11 17 18 18 20 20 17 16 19 22 21 19 20 21 19 15 11 8 5 5
24 23 22 22 21 20 21 22 21 19 16 14 11 9 9 11 10 9 7 6 5 5 6 10 16 19 20 22 23 21 19 19 21 23 22 22 21 18 15 14 11 9 8
17 18 20 22 21 19 19 21 21 18 15 14 13 11 11 10 7 6 6 6 5 6 7 9 12 16 21 24 24 22 20 18 18 21 24 24 21 15 13 12 11 10 9
11 12 16 20 21 20 20 22 22 19 17 15 14 13 11 9 8 7 7 5 4 6 7 7 9 13 20 25 24 19 17 16 15 17 22 23 19 14 11 9 9 8 8
10 11 13 16 19 21 22 23 23 21 18 15 14 12 9 8 9 7 6 4 3 4 6 7 9 12 17 23 23 17 13 12 12 14 18 19 18 15 13 11 9 8 8
10 10 12 14 17 20 21 21 21 19 16 13 11 9 6 7 7 6 4 4 4 4 6 9 10 11 13 17 19 14 9 8 9 10 13 16 17 17 16 15 13 11 10
7 8 10 12 14 15 16 16 16 15 12 11 10 7 5 5 6 6 4 4 6 7 9 12 11 10 10 12 12 9 6 6 6 7 8 11 14 16 16 16 15 13 12
4 5 8 9 9 9 10 13 13 10 8 8 7 5 4 3 6 7 6 5 7 8 11 12 11 9 10 10 7 5 5 4 3 4 5 7 9 12 14 14 13 12 12
3 3 4 5 4 4 5 8 10 7 7 6 5 4 2 3 5 7 6 5 6 7 9 11 10 9 11 11 7 5 5 3 1 1 2 3 5 7 9 9 8 8 8
4 3 2 2 1 1 3 6 7 6 6 5 3 2 1 2 4 5 5 5 4 4 6 9 10 9 11 11 8 8 7 3 0 0 0 1 1 3 4 4 3 3 3
3 2 1 0 0 0 2 4 4 3 3 3 1 0 0 1 2 4 5 5 5 4 4 5 7 9 10 9 8 9 8 4 1 0 0 0 0 0 1 1 1 1 1
1 2 1 0 0 0 1 1 1 1 1 1 0 0 0 1 2 4 5 6 6 6 3 2 5 7 8 8 7 8 6 4 2 1 0 0 0 0 0 0 0 0 0
0 1 1 0 0 0 0 0 0 0 0 0 0 0 0 1 2 3 4 5 6 6 5 4 4 5 5 5 6 6 4 3 2 1 0 0 0 0 0 0 0 0 0
0 0 0 0 0 0 0 0 0 0 0 0 0 0 0 0 1 2 3 4 5 6 6 6 5 3 2 2 2 3 3 2 2 1 0 0 0 0 0 0 0 0 0
1 0 0 0 0 0 0 0 0 0 0 0 0 0 0 0 1 2 2 3 4 5 6 7 5 3 1 0 0 1 1 1 1 0 0 0 0 0 0 0 0 0 0
2 1 0 1 1 1 0 0 0 0 1 1 0 0 0 0 1 1 1 1 1 3 4 5 4 2 0 0 0 0 0 0 0 0 0 0 0 0 0 0 0 0 0
2 1 0 2 3 1 0 0 0 1 2 2 1 0 0 0 0 0 0 0 0 1 1 2 2 1 1 0 0 0 0 0 0 0 0 0 0 0 0 0 0 0 0
2 1 2 4 4 3 1 0 0 1 2 3 2 1 0 0 0 0 0 0 0 0 0 0 1 2 2 1 0 0 0 0 0 0 0 0 0 0 0 0 0 0 0
2 2 3 5 6 4 1 0 0 0 2 3 3 2 0 0 0 0 0 0 0 0 0 0 0 1 2 1 0 0 0 0 0 0 0 0 0 0 0 0 0 0 0
1 2 4 7 7 5 2 0 0 0 2 3 3 1 0 0 0 0 0 0 0 0 0 0 0 0 1 1 0 0 0 0 0 0 0 0 1 1 0 0 0 0 0
0 1 4 7 8 6 3 1 0 0 1 3 2 1 0 0 0 0 0 0 0 0 0 0 0 0 0 0 0 0 0 0 0 0 0 0 1 1 1 0 0 0 0

GEFSMA_con_probscp_204.txt.gz
Probability
33 32 33 34 31 26 24 22 21 20 18 17 15 14 12 12 13 14 15 21 27 25 21 18 20 21 19 18 18 17 17 18 21 27 33 33 26 19 18 18 16 15 14
34 35 36 36 32 26 24 25 24 21 19 18 17 16 14 12 12 13 12 15 20 21 20 18 20 22 21 20 20 19 18 20 23 27 32 32 27 23 20 18 16 14 13
36 37 39 40 36 29 26 29 30 25 21 21 20 18 14 12 12 11 10 9 11 15 16 17 20 23 24 23 22 22 22 24 26 29 31 32 30 27 24 19 16 14 13
35 35 37 38 37 32 29 29 30 26 22 20 19 16 14 13 13 12 10 8 8 10 13 15 17 20 22 22 22 23 25 26 27 28 31 33 33 31 26 22 19 15 13
28 29 30 32 32 31 29 27 26 23 19 17 14 13 14 15 15 13 11 9 9 9 11 12 14 17 19 21 21 21 22 24 26 28 30 31 32 29 27 27 24 18 14
20 22 23 26 28 28 27 26 23 20 17 13 10 9 11 14 15 14 12 10 9 9 8 10 12 13 16 20 22 21 19 20 24 28 29 27 27 27 28 28 26 21 17
17 17 19 23 25 24 24 25 22 19 15 13 9 7 8 10 12 12 11 10 8 6 6 7 10 11 12 15 19 21 19 18 23 27 27 25 24 25 26 26 24 21 19
15 15 17 21 21 20 21 23 21 17 14 13 10 8 7 8 10 9 9 8 8 7 5 5 8 12 12 10 12 16 16 16 20 24 25 24 23 23 25 25 24 20 18
13 15 17 18 18 18 19 21 19 16 14 13 11 10 8 8 8 7 6 6 8 8 5 3 6 12 13 10 10 11 11 13 18 23 24 24 23 23 23 23 20 16 14
15 16 18 17 16 17 19 19 18 17 15 13 12 11 9 8 7 6 4 4 6 8 5 3 4 8 11 11 10 10 9 10 14 19 22 20 20 21 20 19 17 14 12
16 15 16 16 16 17 19 19 19 18 17 14 12 11 9 7 5 4 3 3 5 6 6 5 5 6 8 8 9 8 6 6 8 12 14 14 14 15 16 17 17 15 13
15 13 12 14 16 18 21 22 22 20 17 14 11 9 7 5 4 3 2 1 3 3 5 7 8 7 4 5 6 5 3 2 3 4 7 8 10 12 14 15 16 16 16
12 11 9 11 14 16 19 21 23 21 16 11 8 6 3 3 4 4 2 1 1 1 2 5 8 7 3 2 4 3 1 0 0 1 2 4 7 10 12 12 12 13 14
8 8 9 10 12 12 14 17 20 18 12 8 5 3 2 2 5 7 5 2 0 0 1 3 5 6 5 4 4 3 2 1 0 0 0 1 4 7 8 8 8 8 8
4 6 9 11 10 10 11 14 15 13 9 7 4 1 2 3 6 7 5 3 1 0 0 1 2 4 6 7 4 4 4 2 0 0 0 0 1 3 4 4 4 4 4
5 6 9 10 9 8 11 11 10 8 7 6 3 1 2 3 4 4 4 3 1 0 0 0 1 2 5 5 4 5 5 3 0 0 0 0 0 0 1 2 3 3 3
7 7 8 7 5 5 7 6 5 5 5 3 2 1 1 1 2 2 3 3 3 2 1 0 0 1 2 3 4 5 5 3 1 0 0 0 0 0 0 1 2 2 2
10 9 8 6 3 2 2 3 4 4 3 2 1 0 0 0 1 1 2 4 4 4 2 1 1 2 3 3 4 5 5 3 1 0 0 0 0 0 0 0 1 1 1
12 11 10 8 4 1 1 2 3 3 3 2 1 1 0 0 1 1 2 3 4 4 3 3 3 3 3 3 3 4 3 2 0 0 0 0 0 0 0 0 0 0 0
12 11 9 7 5 2 1 1 1 1 2 2 2 2 1 0 1 1 1 1 2 2 3 3 3 3 3 3 3 3 1 0 0 0 0 0 0 0 0 0 0 0 0
9 9 8 5 3 2 1 0 0 0 1 2 3 2 1 0 0 0 0 0 1 1 1 2 3 3 3 3 3 2 1 0 0 0 0 0 0 0 0 0 0 0 0
9 9 7 4 2 1 0 0 0 0 1 2 2 1 1 1 0 0 0 0 0 0 0 1 2 3 3 3 3 2 1 0 0 0 0 0 0 0 0 0 0 0 0
8 8 8 5 2 0 0 0 0 0 0 1 2 2 1 1 0 0 0 0 0 0 0 0 1 1 2 3 3 2 1 0 0 0 0 0 0 0 0 0 0 0 0
7 8 8 6 2 0 0 0 0 0 0 0 1 2 2 1 0 0 0 0 0 0 0 0 0 0 1 1 2 2 1 0 0 0 0 0 0 0 0 0 0 0 0
7 8 7 5 2 0 0 0 0 0 0 0 0 1 2 1 0 0 0 0 0 0 0 0 0 0 0 0 1 1 1 0 0 0 0 0 0 0 0 0 0 0 0
9 8 6 5 2 1 0 0 0 0 0 0 0 0 1 1 0 0 0 0 0 0 0 0 0 0 0 0 0 1 0 0 0 0 0 0 0 0 0 0 0 0 0

GEFSMA_con_probscp_210.txt.gz
Probability
21 20 18 16 16 16 14 11 10 11 10 7 6 4 3 2 1 1 2 7 10 10 8 7 8 10 10 10 11 14 18 22 23 22 20 20 21 23 21 17 14 11 9
15 14 14 13 14 13 12 10 8 7 7 6 5 4 3 3 2 2 2 4 8 9 9 9 10 11 10 10 10 12 15 18 20 21 19 19 20 21 20 18 16 13 11
7 7 7 9 9 9 8 8 6 4 4 4 3 3 3 3 3 3 3 2 3 5 7 11 13 13 11 10 10 10 12 14 16 17 18 18 20 22 21 19 16 14 12
5 5 4 4 6 5 5 5 4 5 4 2 1 1 1 2 2 2 2 2 1 1 4 9 11 12 12 11 10 10 11 13 14 15 16 17 21 24 24 22 20 16 14
4 4 2 1 2 3 2 2 4 5 4 2 1 1 1 1 1 1 1 1 0 0 1 3 5 8 10 11 10 9 11 13 15 16 16 16 18 23 25 26 26 22 18
3 2 1 0 1 2 2 1 3 4 3 2 2 2 2 2 2 1 0 0 0 0 0 1 2 4 7 8 8 8 10 12 13 14 15 14 15 19 22 26 28 27 23
1 1 1 1 1 2 2 2 2 2 1 1 2 2 2 3 3 2 1 1 0 0 0 0 1 2 4 5 6 7 8 9 10 11 13 13 14 14 16 20 25 27 26
0 1 2 2 1 1 1 2 2 1 0 0 1 1 1 1 2 2 2 2 1 1 0 0 1 1 2 2 3 5 6 6 7 8 10 12 13 12 12 13 19 25 28
1 1 1 1 0 0 0 2 3 2 1 0 0 0 0 0 0 1 2 2 2 2 1 1 1 1 1 1 1 2 4 4 4 6 9 11 12 11 10 10 13 20 24
3 1 0 0 0 0 0 1 2 2 1 0 0 0 0 0 0 0 1 1 2 3 3 2 1 0 0 0 0 0 1 1 3 5 8 11 11 12 11 10 11 15 17
3 1 0 0 0 0 0 0 1 1 0 0 0 0 0 0 0 0 0 0 1 2 3 3 2 1 1 0 0 0 0 0 1 3 6 9 11 12 12 12 12 13 14
3 2 0 0 0 0 0 0 0 0 0 0 0 0 0 0 0 0 0 0 0 1 2 3 3 3 2 1 0 0 0 0 0 1 4 7 9 9 10 11 12 12 13
2 1 0 0 0 0 0 0 0 0 0 0 0 0 0 0 0 0 0 0 0 0 1 2 2 2 2 1 0 0 0 0 0 1 2 4 5 6 6 7 8 10 10
1 0 0 0 0 0 0 0 0 0 0 0 0 0 0 0 0 0 0 0 0 0 0 1 1 1 1 0 0 0 0 0 0 0 1 1 2 4 4 4 5 6 6
0 0 0 0 0 0 0 0 0 0 0 0 0 0 0 0 0 0 0 0 0 0 0 0 0 0 0 0 0 0 0 0 0 0 0 0 1 2 3 3 3 4 4
0 0 0 0 0 0 0 0 0 0 0 0 0 0 0 0 0 0 0 0 0 0 0 0 0 0 0 0 0 0 0 0 0 0 0 0 0 1 2 2 2 2 1
0 0 0 0 0 0 0 0 0 0 0 0 0 0 0 0 0 0 0 0 0 0 0 0 0 0 0 0 0 0 0 0 0 0 0 0 0 0 1 1 1 1 0
0 0 0 0 0 0 0 0 0 0 0 0 0 0 0 0 0 0 0 0 1 1 0 0 0 0 0 0 0 0 0 0 0 0 0 0 0 0 0 0 0 0 0
0 0 0 0 0 0 0 0 0 0 0 0 0 0 0 0 0 0 0 0 1 1 0 0 0 0 0 0 0 0 0 0 0 0 0 0 0 0 0 0 0 0 0
0 0 0 0 0 0 0 0 0 0 0 0 0 0 0 0 0 0 0 0 0 0 0 0 0 0 0 0 0 0 0 0 0 0 0 0 0 0 0 0 0 0 0
0 0 0 0 0 0 0 0 0 0 0 0 0 0 0 0 0 0 0 0 0 0 0 0 0 0 0 0 0 0 0 0 0 0 0 0 0 0 0 0 0 0 0
0 0 0 0 0 0 0 0 0 0 0 0 0 0 0 0 0 0 0 0 0 0 0 0 0 0 0 0 0 0 0 0 0 0 0 0 0 0 0 0 0 0 0
1 0 0 0 0 0 0 0 0 0 0 0 0 0 0 0 0 0 0 0 0 0 0 0 0 0 0 0 0 0 0 0 0 0 0 0 0 0 0 0 0 0 0
2 1 0 0 0 0 0 0 0 0 0 0 0 0 0 0 0 0 0 0 0 0 0 0 0 0 0 0 0 0 0 0 0 0 0 0 0 0 0 0 0 0 0
3 2 1 0 0 0 0 0 0 0 0 0 0 0 0 0 0 0 0 0 0 0 0 0 0 0 0 0 0 0 0 0 0 0 0 0 0 0 0 0 0 0 0
3 2 1 0 0 0 0 0 0 0 0 0 0 0 0 0 0 0 0 0 0 0 0 0 0 0 0 0 0 0 0 0 0 0 0 0 0 0 0 0 0 0 0

GEFSMA_con_probscp_216.txt.gz
Probability
18 17 17 18 18 18 20 19 17 15 13 12 9 7 8 9 8 6 5 5 6 7 5 4 5 6 7 5 4 6 7 12 16 17 16 15 16 16 17 18 16 10 9
15 15 16 17 16 16 17 18 16 13 11 10 8 6 8 8 6 4 4 4 5 5 5 4 6 8 8 5 5 7 10 12 15 17 16 15 15 16 18 18 16 13 12
10 12 13 14 14 15 16 17 15 11 8 7 7 6 7 7 5 3 3 3 3 4 5 6 8 10 9 6 7 9 11 13 14 16 16 15 14 14 17 19 18 17 17
7 8 8 10 13 15 17 17 15 9 5 5 6 6 7 7 4 3 3 3 3 4 5 6 8 10 9 7 7 8 11 12 14 14 15 14 12 12 15 18 19 18 19
6 6 6 6 9 14 15 14 11 7 4 4 4 5 6 5 4 3 3 2 2 3 3 4 5 6 6 6 5 5 8 11 13 15 14 13 13 12 13 16 17 17 17
5 5 4 3 5 7 8 8 6 4 2 1 2 4 4 4 3 3 2 1 1 1 1 1 1 2 4 4 3 3 5 7 10 14 14 14 14 13 12 13 13 14 14
2 2 2 2 2 2 2 3 3 2 0 0 1 2 3 3 3 3 3 2 1 0 0 0 0 1 2 2 2 2 2 3 6 12 14 13 14 13 11 9 8 10 11
1 1 2 2 1 0 0 1 2 2 0 0 0 1 2 3 3 3 3 3 1 1 1 0 0 0 1 1 1 2 2 2 5 9 13 12 11 11 9 7 6 6 7
0 1 1 1 1 0 0 1 1 1 1 0 0 0 1 2 2 3 3 3 3 2 2 1 1 0 0 0 1 1 2 2 4 7 11 12 11 10 8 7 6 5 5
0 0 0 0 0 0 0 0 0 1 1 1 0 0 0 1 1 1 2 3 3 3 2 2 2 1 0 0 1 1 1 1 2 4 8 11 11 10 9 8 8 8 7
0 0 0 0 0 0 0 0 0 1 2 2 0 0 0 0 0 0 1 1 3 3 3 3 3 2 1 1 1 1 0 0 1 1 4 7 9 8 8 8 9 9 10
0 0 0 0 0 0 0 0 0 1 2 1 0 0 0 0 0 0 0 1 2 2 3 3 3 3 3 2 2 1 1 1 0 0 1 3 5 6 7 7 9 9 9
0 0 0 0 1 0 0 0 0 1 1 1 0 0 0 0 0 0 0 0 1 1 1 2 3 3 3 3 2 1 1 1 0 0 0 1 2 4 5 6 7 7 7
0 0 0 0 0 0 0 0 0 0 0 0 0 0 1 1 0 0 0 0 0 0 0 1 2 3 3 3 2 1 1 1 0 0 0 0 0 2 3 4 4 5 5
0 0 0 0 0 0 0 0 0 0 0 0 0 0 1 2 1 0 0 0 0 0 0 0 1 2 3 3 2 1 1 0 0 0 0 0 0 0 1 2 3 3 3
0 0 0 0 0 0 0 0 0 0 0 0 0 0 1 2 1 0 0 0 0 0 0 0 0 1 3 3 2 1 1 0 0 0 0 0 0 0 0 1 2 3 3
0 0 0 0 0 0 0 0 0 0 0 0 0 0 0 1 1 0 0 0 0 0 0 0 0 1 2 3 3 2 1 0 0 0 0 0 0 0 0 0 1 2 1
0 0 0 0 0 0 0 0 0 0 0 0 0 0 0 0 0 0 0 0 0 0 0 0 0 0 1 3 3 2 1 0 0 0 0 0 0 0 0 0 0 0 0
0 0 0 0 0 0 0 0 0 0 0 0 0 0 0 0 0 0 0 0 0 0 0 0 0 0 1 2 2 2 1 0 0 0 0 0 0 0 0 0 0 0 0
0 0 0 0 0 0 0 0 0 0 0 0 0 0 0 0 0 0 0 0 0 0 0 0 0 0 0 1 1 1 0 0 0 0 0 0 0 0 0 0 0 0 0
0 0 0 0 0 0 0 0 0 0 0 0 0 0 0 0 0 0 0 0 0 0 0 0 0 0 0 0 0 1 1 0 0 0 0 0 0 0 0 0 0 0 0
1 1 1 0 0 0 0 0 0 0 0 0 0 0 0 0 0 0 0 0 0 0 0 0 0 0 0 0 0 1 1 1 0 0 0 0 0 0 0 0 0 0 0
2 2 2 1 0 0 0 0 0 0 0 0 0 0 0 0 0 0 0 0 0 0 0 0 0 0 0 0 0 1 2 1 0 0 0 0 0 0 0 0 0 0 0
3 3 3 2 1 0 0 0 0 0 0 0 0 0 0 0 0 0 0 0 0 0 0 0 0 0 0 0 0 0 1 1 0 0 1 0 0 0 0 0 0 0 0
3 3 3 3 2 1 0 0 0 0 0 0 0 0 0 0 0 0 0 0 0 0 0 0 0 0 0 0 0 0 0 0 0 0 0 0 0 0 0 0 0 0 0
3 3 3 3 3 2 1 0 0 0 0 0 0 0 0 0 0 0 0 0 0 0 0 0 0 0 0 0 0 0 0 0 0 0 0 0 0 0 0 0 0 0 0

GEFSMA_con_probscp_222.txt.gz
Probability
23 24 25 26 25 22 21 20 18 16 14 14 11 5 3 4 3 5 10 12 9 8 6 4 4 5 8 12 16 17 16 13 13 15 17 19 20 20 20 20 20 20 19
18 19 21 22 22 20 19 18 17 17 17 15 11 5 4 6 5 6 8 9 8 7 7 6 5 5 7 9 12 13 13 12 12 15 17 17 18 19 20 20 21 21 21
14 15 16 17 18 17 17 17 16 17 17 15 12 9 10 11 10 9 9 9 7 5 6 7 6 5 6 7 9 10 10 9 10 13 15 16 16 15 16 17 18 20 20
11 12 13 14 15 15 15 16 16 15 14 13 12 13 15 15 13 11 12 11 8 5 5 6 5 5 6 8 10 10 9 7 6 9 13 15 15 14 12 12 14 17 17
9 10 11 11 11 13 14 15 16 16 14 12 12 13 15 15 13 13 14 14 11 7 6 5 4 3 5 7 9 11 11 8 6 6 10 13 14 16 15 14 15 16 15
9 9 10 10 10 11 13 16 17 17 16 15 13 12 13 13 13 15 16 15 12 9 7 6 4 3 2 4 6 9 11 10 8 7 9 10 12 15 17 17 17 16 16
8 9 9 10 10 11 12 14 16 16 16 15 14 13 12 12 12 13 15 14 11 8 7 7 5 3 2 2 4 7 10 10 10 9 10 10 10 12 16 17 17 16 15
7 7 8 9 9 10 10 11 13 14 14 14 14 13 11 10 10 10 10 10 9 8 7 6 5 4 2 2 2 4 8 9 9 9 10 10 10 11 13 14 15 14 13
7 7 7 7 8 8 8 8 10 11 12 14 15 13 10 9 9 9 8 8 10 10 8 5 5 4 3 3 3 3 5 7 7 8 9 10 9 9 8 10 12 12 11
6 6 6 6 7 7 7 7 8 9 11 13 16 14 10 8 8 9 9 8 9 10 8 6 5 4 4 5 5 3 2 3 5 7 8 9 8 7 6 7 10 11 11
6 6 6 6 6 6 7 7 7 8 8 11 14 14 10 8 8 8 8 8 8 9 9 7 6 6 6 7 5 2 1 1 3 4 5 6 7 7 6 8 10 12 12
7 7 5 5 5 6 6 6 7 7 7 10 13 13 11 10 9 8 8 9 9 9 8 7 6 6 6 6 4 1 0 0 1 2 3 3 4 6 7 8 10 11 11
8 8 6 4 5 5 6 6 6 7 8 9 11 13 13 13 13 12 11 11 10 8 7 5 4 4 5 5 4 2 1 0 0 1 2 1 2 4 5 6 7 7 7
7 7 6 4 4 5 5 5 6 7 9 10 10 11 13 15 15 15 14 12 8 6 5 4 3 4 6 7 5 3 2 1 0 0 1 1 1 2 3 4 4 3 3
5 5 4 4 4 4 4 4 4 6 8 9 9 10 12 14 15 16 14 10 7 5 4 4 4 5 7 8 6 4 3 1 0 0 0 1 2 1 2 2 2 1 1
5 4 4 4 4 4 4 4 3 4 5 7 8 8 9 11 12 12 12 10 8 7 6 5 6 6 7 6 5 5 4 2 1 0 0 1 1 1 1 1 1 0 0
6 6 6 5 4 4 4 5 4 3 3 3 3 4 5 7 8 9 10 10 9 8 8 8 8 9 7 4 4 4 4 3 2 1 0 0 0 0 0 0 0 0 0
9 9 8 6 6 6 6 6 5 4 2 1 1 1 1 3 5 6 7 7 7 7 7 8 9 10 7 3 2 3 3 3 2 1 0 0 0 0 0 0 0 0 0
9 9 8 7 6 6 7 7 6 4 3 2 2 2 2 2 3 4 3 3 3 4 5 7 8 8 6 2 1 2 2 2 1 0 0 0 0 0 0 0 0 0 0
7 7 7 7 6 6 7 7 7 6 6 5 5 5 4 3 2 1 1 0 1 3 4 5 6 6 5 3 2 1 1 2 2 0 0 0 0 0 0 0 0 0 0
6 6 6 6 6 6 6 6 7 7 7 6 6 6 6 4 2 0 0 0 2 3 3 4 5 4 4 4 3 2 2 3 3 2 1 1 0 0 1 1 0 0 0
6 6 6 6 6 5 4 3 4 5 6 6 6 6 5 3 1 0 0 0 1 1 2 3 3 3 4 4 4 3 3 4 4 4 3 2 1 1 2 1 0 0 0
3 3 3 4 4 4 3 1 1 2 3 5 5 5 4 3 2 2 1 0 0 0 1 2 2 3 3 4 3 3 3 4 5 5 4 3 2 2 2 1 0 0 0
1 1 1 3 3 3 2 1 0 1 1 2 3 3 3 3 3 2 2 1 1 0 0 1 1 2 3 3 3 3 3 4 6 5 4 3 3 2 1 0 0 0 0
0 0 1 2 3 3 2 1 1 1 1 1 1 2 2 3 2 2 2 2 2 1 0 0 0 1 1 2 2 3 3 4 5 5 5 4 3 1 0 0 0 0 0
0 0 0 1 3 3 2 1 1 2 2 2 2 2 1 2 2 1 1 3 3 2 1 0 0 0 0 0 1 3 3 4 4 5 6 5 3 1 0 0 0 0 0